Regional Weather Roundup
Issued by NWS State College, PA

Home | Current Version | Previous Version | Text Only | Print | Product List | Glossary On
Versions: 1 2 3 4 5 6 7 8 9 10 11 12 13 14 15 16 17 18 19 20 21 22 23 24 25 26 27 28 29 30 31 32 33 34 35 36 37 38 39 40 41 42 43 44 45 46 47 48 49 50
000
ASUS41 KCTP 270603
RWRCTP

REGIONAL WEATHER ROUNDUP
NATIONAL WEATHER SERVICE STATE COLLEGE PA
100 AM EST TUE JAN 27 2015

Note: "fair" indicates few or no clouds below 12,000 feet with no
significant weather and/or obstructions to visibility.

* = STATION THAT DOES NOT REPORT PRECIPITATION /E.G. RAIN...SNOW...ETC/
    THUNDER OR FOG.

PAZ002>004-007>009-013>016-020>023-029>032-270700-
WESTERN PENNSYLVANIA

CITY           SKY/WX    TMP DP  RH WIND       PRES   REMARKS
ERIE           CLOUDY    20  13  74 NE8       29.88F WCI  10
MEADVILLE      CLOUDY    18  14  84 NW5       29.81F WCI  11
FRANKLIN*      CLOUDY    16  12  86 NW3       29.80F
NEW CASTLE     FLURRIES  19  15  84 NW6       29.86F WCI  11
BEAVER COUNTY  NOT AVBL
BUTLER*        CLOUDY    19  16  86 CALM      29.83F
PITTSBURGH INT FLURRIES  19  16  88 NW9       29.83F WCI   8
PITTSBURGH     CLOUDY    19  14  81 W9        29.81F WCI   8
INDIANA*       CLOUDY    21  19  93 NW3       29.82S FOG
LATROBE        LGT SNOW  21  19  93 W6        29.83F WCI  14
WASHINGTON CO* CLOUDY    19  16  86 CALM      29.85F
$$

PAZ004>006-010>012-017>019-024>028-033>037-041-042-045-046-049>053-270700-
CENTRAL PENNSYLVANIA

CITY           SKY/WX    TMP DP  RH WIND       PRES   REMARKS
BRADFORD       LGT SNOW  14   9  80 NE3       29.74F
DUBOIS         CLOUDY    17  14  88 N5        29.74F FOG     WCI  10
CLEARFIELD     FLURRIES  19  16  88 CALM      29.76F
JOHNSTOWN      LGT SNOW  19  16  88 W9        29.70S FOG     WCI   8
ALTOONA        CLOUDY    19  18  95 W3        29.74F
STATE COLLEGE  CLOUDY    22  18  85 NE5       29.77F
WILLIAMSPORT   FLURRIES  24  19  81 W6        29.80F
SELINSGROVE    FLURRIES  25  21  85 N7        29.79F
FT INDIANTOWN  NOT AVBL
CAPITAL CITY   CLOUDY    26  21  81 NW8       29.77S
HARRISBURG     CLOUDY    25  21  85 NW13      29.76S WCI  14
YORK           CLOUDY    25  22  88 NW8       29.75S
$$

PAZ038>040-043-044-047-048-054-055-060>062-067>071-270700-
EASTERN PENNSYLVANIA

CITY           SKY/WX    TMP DP  RH WIND       PRES   REMARKS
SCRANTON       MOCLDY    23  14  68 E3        29.73F
MOUNT POCONO   CLOUDY    19  13  77 NE13G21   29.63F WCI   6
ALLENTOWN      CLOUDY    26  15  63 N8        29.72F
QUAKERTOWN*    NOT AVBL
READING        CLOUDY    26  17  68 VRB3      29.72F
LANCASTER      CLOUDY    26  19  74 N7        29.73S
COATESVILLE    CLOUDY    25  19  80 N13G21    29.68F WCI  13
POTTSTOWN      CLOUDY    24  16  71 VRB7      29.72F
BLUE BELL      CLOUDY    28  19  69 N7        29.69S
DOYLESTOWN     CLOUDY    22  17  81 N12       29.68F WCI  10
WILLOW GROVE   NOT AVBL
NORTH PHILA    CLOUDY    28  17  63 N14       29.70F
PHILADELPHIA   CLOUDY    28  20  71 N18G25    29.69F
$$



USA.gov is the U.S. government's official web portal to all federal, state and local government web resources and services.